Regional Weather Roundup
Issued by NWS

Home | Current Version | Previous Version | Text Only | Print | Product List | Glossary On
Versions: 1 2 3 4 5 6 7 8 9 10 11 12 13 14 15 16 17 18 19 20 21 22 23 24 25 26 27 28 29 30 31 32 33 34 35 36 37 38 39 40 41 42 43 44 45 46 47 48 49 50
000
ASUS43 KDTX 240601
RWRMI
MICHIGAN HOURLY REGIONAL WEATHER ROUNDUP
NATIONAL WEATHER SERVICE DETROIT/PONTIAC MI
100 AM EST FRI FEB 24 2017

NOTE: "FAIR" INDICATES FEW OR NO CLOUDS BELOW 12,000 FEET WITH NO
SIGNIFICANT WEATHER AND/OR OBSTRUCTION TO VISIBILITY.

MIZ047>049-052>055-059>063-066>070-074>076-081>083-240700-
SOUTHEAST LOWER MICHIGAN

CITY           SKY/WX    TMP DP  RH WIND       PRES   REMARKS
ADRIAN         CLOUDY    42  39  89 E16G25    29.78F
6HR MIN TEMP:  42; 6HR MAX TEMP:  56; 6HR PCP:  0.04;

ALMA           LGT RAIN  38  35  89 NE16      29.83F WCI  29
ANN ARBOR      CLOUDY    40  37  89 NE9       29.80F WCI  34
BAD AXE        CLOUDY    34  30  85 NE7       29.89R WCI  28
6HR MIN TEMP:  34; 6HR MAX TEMP:  38;

CARO           CLOUDY    37  32  84 NE5       29.87F WCI  33
DETROIT CITY   LGT RAIN  40  37  89 NE8       29.82F WCI  34
6HR MIN TEMP:  40; 6HR MAX TEMP:  45; 6HR PCP: TRACE;

DETROIT        LGT RAIN  41  37  86 NE9       29.81F
6HR MIN TEMP:  41; 6HR MAX TEMP:  58; 6HR PCP:  0.01;

GROSSE ILE     MIX PCPN  40  38  91 NE10      29.80F WCI  34
6HR MIN TEMP:  40; 6HR MAX TEMP:  51; 6HR PCP:  0.04;

HILLSDALE      DRIZZLE   43  41  93 E17G23    29.74S
HOWELL         CLOUDY    38  35  89 NE14      29.80S WCI  29
6HR MIN TEMP:  38; 6HR MAX TEMP:  50;


CITY           SKY/WX    TMP DP  RH WIND       PRES   REMARKS
JACKSON        LGT RAIN  43  40  89 E10       29.76F FOG
6HR MIN TEMP:  43; 6HR MAX TEMP:  52; 6HR PCP:  0.09;

LAMBERTVILLE   CLOUDY    43  40  87 NE6       29.78F
6HR MIN TEMP:  43; 6HR MAX TEMP:  58;

LANSING        LGT RAIN  41  37  86 E16       29.79F
6HR MIN TEMP:  41; 6HR MAX TEMP:  49; 6HR PCP:  0.11;

LAPEER         DRIZZLE   37  35  92 E6        29.85F WCI  32
6HR MIN TEMP:  37; 6HR MAX TEMP:  47;

MASON          CLOUDY    41  39  93 E12       29.77S
MONROE         LGT RAIN  41  40  94 NE8       29.79F
MT. CLEMENS    LGT RAIN  39  38  96 NE8       29.82F WCI  33
6HR MIN TEMP:  39; 6HR MAX TEMP:  42; 6HR PCP: TRACE;

PONTIAC        LGT RAIN  38  33  82 NE12      29.79F WCI  30
6HR MIN TEMP:  38; 6HR MAX TEMP:  51; 6HR PCP: TRACE;

PORT HOPE        N/A     35  31  85 N16       29.87F WCI  25
6HR MIN TEMP:  35; 6HR MAX TEMP:  37;

PORT HURON     CLOUDY    37  36  93 NE7       29.86S WCI  32
TRI CITIES     CLOUDY    37  32  82 E16G24    29.86F WCI  28
6HR MIN TEMP:  37; 6HR MAX TEMP:  44;

MIDLAND        CLOUDY    37  31  80 E10       29.85F WCI  29
6HR MIN TEMP:  37; 6HR MAX TEMP:  43;

TROY           LGT RAIN  39  35  85 NE12      29.84F WCI  32
SAGINAW HB     CLOUDY    37  32  81 NE12      29.86S WCI  30
$$
MIZ043>046-050>051-056>058-064>065-071>073-077>080-240700-
SOUTHWEST LOWER MICHIGAN

CITY           SKY/WX    TMP DP  RH WIND       PRES   REMARKS
BATTLE CREEK   CLOUDY    44  43  96 E8        29.73F
6HR MIN TEMP:  44; 6HR MAX TEMP:  51; 6HR PCP:  0.17;

BENTON HARBOR  CLOUDY    48  45  89 E9G20     29.67F
6HR MIN TEMP:  38; 6HR MAX TEMP:  48; 6HR PCP:  0.21;

BIG RAPIDS     CLOUDY    35  31  87 NE7       29.81F WCI  29
6HR MIN TEMP:  35; 6HR MAX TEMP:  39;

COLDWATER      MIX PCPN  47  43  86 E16G23    29.73S
6HR MIN TEMP:  47; 6HR MAX TEMP:  52;

FREMONT        LGT RAIN  37  33  87 E15G22    29.77F WCI  28
HOLLAND        LGT RAIN  41  38  89 E13       29.72F
6HR MIN TEMP:  41; 6HR MAX TEMP:  46; 6HR PCP:  0.08;

GRAND RAPIDS   LGT RAIN  40  37  89 E16       29.75F WCI  31
IONIA          LGT RAIN  39  38  96 NE13G20   29.77F WCI  32
6HR MIN TEMP:  39; 6HR MAX TEMP:  46; 6HR PCP:  0.03;

KALAMAZOO      LGT RAIN  46  42  86 NE7       29.72F
6HR MIN TEMP:  46; 6HR MAX TEMP:  50; 6HR PCP:  0.18;

LUDINGTON      FLURRIES  32  32  99 NE10      29.83F WCI  24
6HR MIN TEMP:  32; 6HR MAX TEMP:  37; 6HR PCP:  0.04;

MARSHALL       CLOUDY    46  45  97 E6        29.74S
6HR MIN TEMP:  46; 6HR MAX TEMP:  52; 6HR PCP:  0.14;

MOUNT PLEASANT LGT RAIN  37  33  85 E8        29.83F WCI  30
6HR MIN TEMP:  37; 6HR MAX TEMP:  40;

MUSKEGON       RAIN      39  36  89 NE17G24   29.74F WCI  30
6HR MIN TEMP:  39; 6HR MAX TEMP:  45; 6HR PCP:  0.12;

SOUTH HAVEN    CLOUDY    43  42  97 E13G18    29.68F
$$
MIZ016>042-240700-
NORTHERN LOWER MICHIGAN

CITY           SKY/WX    TMP DP  RH WIND       PRES   REMARKS
ALPENA         CLOUDY    32  24  72 N16       29.91F WCI  21
6HR MIN TEMP:  32; 6HR MAX TEMP:  37; 6HR PCP: TRACE;

BEAVER ISLAND  CLOUDY    31  25  80 CALM      29.94F
6HR MIN TEMP:  29; 6HR MAX TEMP:  32;

BELLAIRE       LGT SNOW  30  28  92 NE3       29.94R
6HR MIN TEMP:  30; 6HR MAX TEMP:  33;

CADILLAC       LGT SNOW  31  29  91 NE3       29.83S
CHARLEVOIX     CLOUDY    32  24  70 NE7       29.96F WCI  26
FRANKFORT      LGT SNOW  31  30  94 NE6       29.89F WCI  26
GAYLORD        LGT SNOW  29  23  78 NE8       29.89S VSB 1   WCI  21
6HR MIN TEMP:  29; 6HR MAX TEMP:  35; 6HR PCP:  0.01;

GRAYLING       CLOUDY    31  26  81 N13G21    29.87F WCI  21
HARBOR SPRINGS CLOUDY    32  22  68 NE5       29.94S WCI  27
HOUGHTON LAKE  CLOUDY    32  28  85 NE9       29.86S WCI  24
6HR MIN TEMP:  32; 6HR MAX TEMP:  36; 6HR PCP:  0.02;

MANISTEE       LGT SNOW  32  29  88 NE9       29.85S FOG     WCI  24
OSCODA         CLOUDY    34  23  64 N12       29.90F WCI  25
6HR MIN TEMP:  34; 6HR MAX TEMP:  39;

PELLSTON       CLOUDY    31  22  69 N5        29.95S WCI  26
6HR MIN TEMP:  30; 6HR MAX TEMP:  33;

ROGERS CITY    CLOUDY    32  24  70 N10G16    29.92F WCI  24
TRAVERSE CITY  LGT SNOW  31  28  89 NE15G21   29.90F FOG     WCI  20
6HR MIN TEMP:  31; 6HR MAX TEMP:  37; 6HR PCP:  0.01;

$$
MIZ007>008-015-240700-
EASTERN UPPER MICHIGAN

CITY           SKY/WX    TMP DP  RH WIND       PRES   REMARKS
KINROSS        CLOUDY    28  24  85 CALM      29.94S
6HR MIN TEMP:  26; 6HR MAX TEMP:  29;

MACKINAC ISLAN CLOUDY    29  25  84 N5        29.94S WCI  24
6HR MIN TEMP:  28; 6HR MAX TEMP:  31;

NEWBERRY       CLOUDY    30  23  77 CALM      29.93F
6HR MIN TEMP:  29; 6HR MAX TEMP:  31;

S. S. MARIE    CLOUDY    31  21  66 CALM      29.94S
6HR MIN TEMP:  31; 6HR MAX TEMP:  32;

MUNISING         N/A     32  26  78 N9        29.93F WCI  24
6HR MIN TEMP:  32; 6HR MAX TEMP:  33;

$$
MIZ004>006-011>014-085-240700-
CENTRAL UPPER MICHIGAN

CITY           SKY/WX    TMP DP  RH WIND       PRES   REMARKS
MANISTIQUE     CLOUDY    30  26  86 N6        29.93F WCI  24
6HR MIN TEMP:  25; 6HR MAX TEMP:  30;

ESCANABA       CLOUDY    31  26  82 NE3       29.93F
6HR MIN TEMP:  31; 6HR MAX TEMP:  35;

MENOMINEE      CLOUDY    33  24  69 E15       29.91F WCI  23
6HR MIN TEMP:  33; 6HR MAX TEMP:  35;

SAWYER-GWINN   CLOUDY    28  25  89 N6        29.92F WCI  21
6HR MIN TEMP:  28; 6HR MAX TEMP:  30;

$$
MIZ001>003-009>011-084-240700-
WESTERN UPPER MICHIGAN

CITY           SKY/WX    TMP DP  RH WIND       PRES   REMARKS
IRON MOUNTAIN  CLOUDY    30  22  72 N10       29.90R WCI  21
6HR MIN TEMP:  30; 6HR MAX TEMP:  32;

HOUGHTON       CLOUDY    26  18  71 NE12      29.95R WCI  16
6HR MIN TEMP:  25; 6HR MAX TEMP:  29;

COPPER HARBOR    N/A     28  19  69 NE13      30.00R WCI  17
6HR MIN TEMP:  28; 6HR MAX TEMP:  33;

IRONWOOD       CLOUDY    25  21  85 N5        29.94S WCI  19
6HR MIN TEMP:  24; 6HR MAX TEMP:  28;

$$

ABBREVIATIONS USED IN REMARKS
   TC - TEMPERATURE IN CELSIUS
  WCI - WIND CHILL INDEX
   HX - HEAT INDEX
  VSB - VISIBILITY





USA.gov is the U.S. government's official web portal to all federal, state and local government web resources and services.